• In Österreich
  • Länderverzeichnis
  • Für 7 Tage
  • Wassertemperatur
  • Satellitenkarten
  • Wetterkarte
  • News
  • Widgets
  • user-avatar
    Anmelden

    Stündliche Wetter Mardan

    Heute, 22 Oktober, Montag

    Zeit Temperatur Niederschläge Wind Luftdruck Luftfeuchtigkeit
    00:00 +23°C° 0 mm 2 m/S 736 mmHg 25%
    01:00 +21°C° 0 mm 2 m/S 736 mmHg 26%
    02:00 +21°C° 0 mm 2 m/S 735 mmHg 26%
    03:00 +20°C° 0 mm 2 m/S 735 mmHg 26%
    04:00 +20°C° 0 mm 2 m/S 735 mmHg 26%
    05:00 +20°C° 0 mm 2 m/S 735 mmHg 26%
    06:00 +21°C° 0 mm 2 m/S 735 mmHg 26%
    07:00 +23°C° 0 mm 2 m/S 735 mmHg 25%
    08:00 +23°C° 0 mm 2 m/S 735 mmHg 24%
    09:00 +25°C° 0 mm 2 m/S 735 mmHg 22%
    10:00 +27°C° 0 mm 1 m/S 735 mmHg 19%
    11:00 +30°C° 0 mm 1 m/S 735 mmHg 17%
    12:00 +30°C° 0 mm 1 m/S 734 mmHg 16%
    13:00 +31°C° 0 mm 1 m/S 734 mmHg 16%
    14:00 +31°C° 0 mm 2 m/S 733 mmHg 15%
    15:00 +30°C° 0 mm 1 m/S 733 mmHg 17%
    16:00 +30°C° 0 mm 1 m/S 733 mmHg 19%
    17:00 +29°C° 0 mm 1 m/S 733 mmHg 21%
    18:00 +28°C° 0 mm 1 m/S 733 mmHg 22%
    19:00 +26°C° 0 mm 1 m/S 734 mmHg 23%
    20:00 +25°C° 0 mm 1 m/S 734 mmHg 24%
    21:00 +24°C° 0 mm 2 m/S 734 mmHg 24%
    22:00 +24°C° 0 mm 2 m/S 734 mmHg 25%
    23:00 +23°C° 0 mm 2 m/S 734 mmHg 25%

    Morgen, 23 Oktober, Dienstag

    Zeit Temperatur Niederschläge Wind Luftdruck Luftfeuchtigkeit
    00:00 +21°C° 0 mm 2 m/S 734 mmHg 25%
    01:00 +21°C° 0 mm 2 m/S 734 mmHg 24%
    02:00 +20°C° 0 mm 2 m/S 734 mmHg 24%
    03:00 +20°C° 0 mm 2 m/S 734 mmHg 24%
    04:00 +20°C° 0 mm 2 m/S 734 mmHg 23%
    05:00 +19°C° 0 mm 2 m/S 734 mmHg 23%
    06:00 +20°C° 0 mm 2 m/S 734 mmHg 22%
    07:00 +21°C° 0 mm 2 m/S 735 mmHg 22%
    08:00 +21°C° 0 mm 2 m/S 735 mmHg 21%
    09:00 +24°C° 0 mm 2 m/S 735 mmHg 19%
    10:00 +26°C° 0 mm 1 m/S 735 mmHg 16%
    11:00 +28°C° 0 mm 1 m/S 735 mmHg 14%
    12:00 +29°C° 0 mm 1 m/S 735 mmHg 13%
    13:00 +29°C° 0 mm 2 m/S 734 mmHg 13%
    14:00 +30°C° 0 mm 2 m/S 734 mmHg 13%
    15:00 +29°C° 0 mm 1 m/S 734 mmHg 15%
    16:00 +28°C° 0 mm 1 m/S 734 mmHg 17%
    17:00 +28°C° 0 mm 1 m/S 734 mmHg 19%
    18:00 +26°C° 0 mm 1 m/S 734 mmHg 19%
    19:00 +25°C° 0 mm 1 m/S 735 mmHg 20%
    20:00 +24°C° 0 mm 1 m/S 735 mmHg 21%
    21:00 +23°C° 0 mm 1 m/S 735 mmHg 21%
    22:00 +23°C° 0 mm 2 m/S 735 mmHg 22%
    23:00 +21°C° 0 mm 2 m/S 735 mmHg 22%

    übermorgen, 24 Oktober, Mittwoch

    Zeit Temperatur Niederschläge Wind Luftdruck Luftfeuchtigkeit
    00:00 +21°C° 0 mm 2 m/S 735 mmHg 22%
    01:00 +20°C° 0 mm 2 m/S 735 mmHg 22%
    02:00 +20°C° 0 mm 2 m/S 735 mmHg 22%
    03:00 +19°C° 0 mm 2 m/S 734 mmHg 22%
    04:00 +19°C° 0 mm 2 m/S 734 mmHg 22%
    05:00 +19°C° 0 mm 2 m/S 734 mmHg 22%
    06:00 +20°C° 0 mm 2 m/S 734 mmHg 22%
    07:00 +20°C° 0 mm 2 m/S 735 mmHg 21%
    08:00 +22°C° 0 mm 1 m/S 735 mmHg 21%
    09:00 +24°C° 0 mm 1 m/S 735 mmHg 18%
    10:00 +26°C° 0 mm 1 m/S 735 mmHg 16%
    11:00 +28°C° 0 mm 1 m/S 736 mmHg 13%
    12:00 +28°C° 0 mm 1 m/S 735 mmHg 13%
    13:00 +29°C° 0 mm 1 m/S 735 mmHg 13%
    14:00 +30°C° 0 mm 2 m/S 734 mmHg 12%
    15:00 +29°C° 0 mm 1 m/S 734 mmHg 14%
    16:00 +28°C° 0 mm 1 m/S 734 mmHg 16%
    17:00 +27°C° 0 mm 1 m/S 734 mmHg 18%
    18:00 +26°C° 0 mm 1 m/S 734 mmHg 19%
    19:00 +25°C° 0 mm 1 m/S 735 mmHg 20%
    20:00 +24°C° 0 mm 1 m/S 735 mmHg 20%
    21:00 +23°C° 0 mm 1 m/S 736 mmHg 20%
    22:00 +23°C° 0 mm 2 m/S 736 mmHg 21%
    23:00 +21°C° 0 mm 2 m/S 736 mmHg 21%

    25 Oktober, Donnerstag

    Zeit Temperatur Niederschläge Wind Luftdruck Luftfeuchtigkeit
    00:00 +21°C° 0 mm 2 m/S 736 mmHg 21%
    01:00 +20°C° 0 mm 2 m/S 736 mmHg 21%
    02:00 +20°C° 0 mm 2 m/S 735 mmHg 21%
    03:00 +19°C° 0 mm 2 m/S 735 mmHg 21%
    04:00 +19°C° 0 mm 2 m/S 735 mmHg 21%
    05:00 +18°C° 0 mm 2 m/S 735 mmHg 21%
    06:00 +19°C° 0 mm 2 m/S 736 mmHg 20%
    07:00 +20°C° 0 mm 2 m/S 736 mmHg 20%
    08:00 +21°C° 0 mm 2 m/S 736 mmHg 20%
    09:00 +24°C° 0 mm 1 m/S 736 mmHg 17%
    10:00 +26°C° 0 mm 1 m/S 736 mmHg 15%
    11:00 +28°C° 0 mm 1 m/S 737 mmHg 13%
    12:00 +29°C° 0 mm 1 m/S 736 mmHg 12%
    13:00 +29°C° 0 mm 1 m/S 736 mmHg 12%
    14:00 +30°C° 0 mm 2 m/S 735 mmHg 11%
    15:00 +29°C° 0 mm 1 m/S 735 mmHg 14%
    16:00 +28°C° 0 mm 1 m/S 735 mmHg 16%
    17:00 +28°C° 0 mm 1 m/S 735 mmHg 18%
    18:00 +27°C° 0 mm 1 m/S 736 mmHg 18%
    19:00 +26°C° 0 mm 1 m/S 737 mmHg 19%
    20:00 +25°C° 0 mm 1 m/S 737 mmHg 19%
    21:00 +24°C° 0 mm 1 m/S 737 mmHg 20%
    22:00 +23°C° 0 mm 1 m/S 738 mmHg 20%
    23:00 +21°C° 0 mm 2 m/S 738 mmHg 21%

    26 Oktober, Freitag

    Zeit Temperatur Niederschläge Wind Luftdruck Luftfeuchtigkeit
    00:00 +21°C° 0 mm 2 m/S 738 mmHg 21%
    01:00 +20°C° 0 mm 2 m/S 737 mmHg 21%
    02:00 +20°C° 0 mm 2 m/S 737 mmHg 22%
    03:00 +20°C° 0 mm 2 m/S 737 mmHg 22%
    04:00 +19°C° 0 mm 2 m/S 737 mmHg 22%
    05:00 +19°C° 0 mm 2 m/S 737 mmHg 22%
    06:00 +20°C° 0 mm 2 m/S 738 mmHg 22%
    07:00 +20°C° 0 mm 2 m/S 738 mmHg 21%
    08:00 +21°C° 0 mm 2 m/S 738 mmHg 21%
    09:00 +24°C° 0 mm 1 m/S 738 mmHg 18%
    10:00 +26°C° 0 mm 1 m/S 738 mmHg 16%
    11:00 +28°C° 0 mm 1 m/S 738 mmHg 14%
    12:00 +29°C° 0 mm 1 m/S 738 mmHg 13%
    13:00 +30°C° 0 mm 1 m/S 737 mmHg 13%
    14:00 +31°C° 0 mm 2 m/S 736 mmHg 12%
    15:00 +30°C° 0 mm 1 m/S 736 mmHg 14%
    16:00 +29°C° 0 mm 1 m/S 736 mmHg 17%
    17:00 +28°C° 0 mm 1 m/S 736 mmHg 19%
    18:00 +27°C° 0 mm 1 m/S 736 mmHg 19%
    19:00 +25°C° 0 mm 1 m/S 737 mmHg 20%
    20:00 +24°C° 0 mm 1 m/S 737 mmHg 21%
    21:00 +24°C° 0 mm 1 m/S 737 mmHg 21%
    22:00 +23°C° 0 mm 1 m/S 737 mmHg 21%
    23:00 +21°C° 0 mm 2 m/S 737 mmHg 22%

    27 Oktober, Samstag

    Zeit Temperatur Niederschläge Wind Luftdruck Luftfeuchtigkeit
    00:00 +21°C° 0 mm 2 m/S 737 mmHg 21%
    01:00 +21°C° 0 mm 2 m/S 737 mmHg 21%
    02:00 +20°C° 0 mm 2 m/S 736 mmHg 21%
    03:00 +20°C° 0 mm 2 m/S 736 mmHg 21%
    04:00 +20°C° 0 mm 1 m/S 736 mmHg 20%
    05:00 +20°C° 0 mm 1 m/S 736 mmHg 20%
    06:00 +21°C° 0 mm 1 m/S 737 mmHg 20%
    07:00 +22°C° 0 mm 1 m/S 737 mmHg 19%
    08:00 +23°C° 0 mm 1 m/S 737 mmHg 19%
    09:00 +25°C° 0 mm 1 m/S 737 mmHg 17%
    10:00 +27°C° 0 mm 1 m/S 737 mmHg 15%
    11:00 +29°C° 0 mm 1 m/S 737 mmHg 13%
    12:00 +30°C° 0 mm 1 m/S 736 mmHg 12%
    13:00 +30°C° 0 mm 1 m/S 736 mmHg 12%
    14:00 +31°C° 0 mm 1 m/S 735 mmHg 12%
    15:00 +30°C° 0 mm 1 m/S 735 mmHg 14%
    16:00 +29°C° 0 mm 1 m/S 735 mmHg 17%
    17:00 +28°C° 0 mm 1 m/S 735 mmHg 19%
    18:00 +27°C° 0 mm 1 m/S 736 mmHg 19%
    19:00 +26°C° 0 mm 1 m/S 736 mmHg 20%
    20:00 +25°C° 0 mm 1 m/S 737 mmHg 20%
    21:00 +24°C° 0 mm 1 m/S 737 mmHg 21%
    22:00 +23°C° 0 mm 2 m/S 737 mmHg 21%
    23:00 +23°C° 0 mm 2 m/S 737 mmHg 22%

    28 Oktober, Sonntag

    Zeit Temperatur Niederschläge Wind Luftdruck Luftfeuchtigkeit
    00:00 +22°C° 0 mm 1 m/S 736 mmHg 22%
    01:00 +22°C° 0 mm 1 m/S 736 mmHg 22%
    02:00 +22°C° 0 mm 1 m/S 736 mmHg 23%
    03:00 +21°C° 0 mm 1 m/S 736 mmHg 23%
    04:00 +21°C° 0 mm 1 m/S 736 mmHg 22%
    05:00 +21°C° 0 mm 1 m/S 736 mmHg 22%
    06:00 +22°C° 0 mm 1 m/S 736 mmHg 22%
    07:00 +23°C° 0 mm 1 m/S 736 mmHg 21%
    08:00 +23°C° 0 mm 1 m/S 736 mmHg 20%
    09:00 +25°C° 0 mm 1 m/S 736 mmHg 18%
    10:00 +27°C° 0 mm 1 m/S 736 mmHg 17%
    11:00 +29°C° 0 mm 1 m/S 736 mmHg 15%
    12:00 +30°C° 0 mm 1 m/S 735 mmHg 14%
    13:00 +31°C° 0 mm 1 m/S 735 mmHg 14%
    14:00 +32°C° 0 mm 1 m/S 734 mmHg 14%
    15:00 +31°C° 0 mm 1 m/S 734 mmHg 16%
    16:00 +30°C° 0 mm 1 m/S 734 mmHg 18%
    17:00 +29°C° 0 mm 1 m/S 734 mmHg 20%
    18:00 +28°C° 0 mm 1 m/S 735 mmHg 21%
    19:00 +27°C° 0 mm 1 m/S 735 mmHg 21%
    20:00 +25°C° 0 mm 1 m/S 735 mmHg 22%
    21:00 +25°C° 0 mm 1 m/S 735 mmHg 23%
    22:00 +24°C° 0 mm 1 m/S 735 mmHg 24%
    23:00 +24°C° 0 mm 1 m/S 735 mmHg 25%
    Mehr zeigen